Regional Weather Roundup
Issued by NWS Spokane, WA

Home | Current Version | Previous Version | Text Only | Print | Product List | Glossary On
Versions: 1 2 3 4 5 6 7 8 9 10 11 12 13 14 15 16 17 18 19 20 21 22 23 24 25 26 27 28 29 30 31 32 33 34 35 36 37 38 39 40 41 42 43 44 45 46 47 48 49 50
000
NZUS01 KOTX 302200
RWROTX
EASTERN WASHINGTON/NORTHERN IDAHO ROUNDUP
NATIONAL WEATHER SERVICE, SPOKANE WA
200 PM PST FRI JAN 30 2015

Note: "fair" indicated few or no clouds below 12,000 feet with no
significant weather and/or obstructions to visibility.

...NORTHEAST WASHINGTON AND NORTHERN IDAHO PANHANDLE...

CITY           SKY/WX    TMP DP  RH WIND       PRES   REMARKS
SPOKANE INTL   FOG       31  29  92 CALM      30.30F VSB 1/4
SPOKANE DOWNTO CLOUDY    31  28  89 CALM      30.33F FOG
COEUR D ALENE  CLOUDY    32  28  86 NW5       30.29F WCI  27
DEER PARK      CLOUDY    29  28  96 S3        30.31F FOG

...SOUTHEAST WASHINGTON AND SOUTHERN IDAHO PANHANDLE...

CITY           SKY/WX    TMP DP  RH WIND       PRES   REMARKS
WALLA WALLA    CLOUDY    38  33  82 SW6       30.34F
PULLMAN/MOSCOW CLOUDY    33  32  96 SW3       30.30F FOG
LOWELL           N/A     40  30  67 S10G18    30.30F

...COLUMBIA BASIN...

CITY           SKY/WX    TMP DP  RH WIND       PRES   REMARKS
EPHRATA        CLOUDY    37  34  89 SE3       30.33F
MOSES LAKE     CLOUDY    38  34  85 SE5       30.34F
TRI CITIES     CLOUDY    40  35  83 W7        30.39F
HERMISTON      CLOUDY    39  35  86 CALM      30.37F
PENDLETON      CLOUDY    35  30  82 VRB3      30.32F

...EAST SLOPES CASCADES...

CITY           SKY/WX    TMP DP  RH WIND       PRES   REMARKS
THE DALLES     CLOUDY    42  33  70 NE7       30.38F
YAKIMA         CLOUDY    38  31  76 CALM      30.37F
ELLENSBURG     CLOUDY    38  31  76 CALM      30.32F
WENATCHEE      CLOUDY    37  30  75 CALM      30.34F
OMAK           CLOUDY    38  31  76 S8        30.33F

...SOUTHERN BRITISH COLUMBIA...

CITY           SKY/WX    TMP DP  RH WIND       PRES   REMARKS

...WESTERN MONTANA...

CITY           SKY/WX    TMP DP  RH WIND       PRES   REMARKS
MISSOULA       SUNNY     33  24  69 SW3       30.25F

...NEIGHBORING CITIES...

CITY           SKY/WX    TMP DP  RH WIND       PRES   REMARKS
SEATTLE        MOSUNNY   46  40  79 CALM      30.26F HAZE



USA.gov is the U.S. government's official web portal to all federal, state and local government web resources and services.